Weather History for Gillette, WY

Change the Weather History Date:

Saturday, August 24, 2013

  Actual Average Record
Temperature  
Mean Temperature 74 °F 68 °F  
Max Temperature 88 °F 84 °F 98 °F (1944)
Min Temperature 59 °F 51 °F 38 °F (1971)
Degree Days  
Heating Degree Days 0 2  
Month to date heating degree days 0 22  
Since 1 June heating degree days 117 183  
Since 1 July heating degree days 0 41  
Cooling Degree Days 9 4  
Month to date cooling degree days 174 152  
Year to date cooling degree days 446 434  
Since 1 June cooling degree days 438 426  
Growing Degree Days 24 (Base 50)    
Moisture  
Dew Point 51 °F    
Average Humidity 50    
Maximum Humidity 72    
Minimum Humidity 27    
Precipitation  
Precipitation 0.00 in 0.02 in 0.68 in (1950)
Month to date precipitation 0.99 0.76  
Year to date precipitation 13.43 10.29  
Sea Level Pressure  
Sea Level Pressure 29.80 in    
Wind  
Wind Speed 7 mph (WSW)    
Max Wind Speed 20 mph    
Max Gust Speed 26 mph    
Visibility 10 miles    
Events      
T = Trace of Precipitation, MM = Missing Value Source: NWS Daily Summary

Daily Weather History Graph

Daily Weather History Graph

Search for Another Location

Airport:

Trip Planner

Search our weather history database for the weather conditions in past years. The results will help you decide how hot, cold, wet, or windy it might be!

Date:

Astronomy

Aug. 24, 2013 Rise Set
Actual Time 6:16 AM MDT 7:51 PM MDT
Civil Twilight 5:45 AM MDT 8:22 PM MDT
Nautical Twilight 5:08 AM MDT 8:59 PM MDT
Astronomical Twilight 4:28 AM MDT 9:38 PM MDT
Moon 9:35 PM MDT (8/24) 10:30 AM MDT (8/24)
Length of Visible Light 14h 36m
Length of Day
13h 35m
Waning Gibbous, 84% of the Moon is Illuminated
Aug 24
Waning Gibbous
Aug 28
Last Quarter
Sep 5
New
Sep 12
First Quarter
Sep 19
Full

Hourly Weather History & Observations

Time (MDT) Temp. Dew Point Humidity Pressure Visibility Wind Dir Wind Speed Gust Speed Precip Events Conditions
12:13 AM 73.4 °F 53.6 °F 50% 29.92 in 10.0 mi WSW 9.2 mph - N/A   Mostly Cloudy
12:53 AM 75.0 °F 51.1 °F 43% 29.72 in 10.0 mi WSW 12.7 mph - N/A   Partly Cloudy
1:53 AM 73.0 °F 53.1 °F 49% 29.68 in 10.0 mi West 17.3 mph 23.0 mph N/A   Clear
2:53 AM 68.0 °F 53.1 °F 59% 29.74 in 10.0 mi North 4.6 mph - N/A   Clear
3:53 AM 64.0 °F 53.1 °F 67% 29.77 in 10.0 mi West 5.8 mph - N/A   Clear
4:53 AM 61.0 °F 52.0 °F 72% 29.77 in 10.0 mi WSW 4.6 mph - N/A   Clear
5:53 AM 63.0 °F 53.1 °F 70% 29.78 in 10.0 mi SW 9.2 mph - N/A   Clear
6:53 AM 66.0 °F 52.0 °F 60% 29.79 in 10.0 mi SW 12.7 mph - N/A   Clear
7:53 AM 73.0 °F 52.0 °F 48% 29.79 in 10.0 mi SSW 8.1 mph - N/A   Clear
8:53 AM 75.0 °F 51.1 °F 43% 29.80 in 10.0 mi SW 13.8 mph - N/A   Clear
9:53 AM 80.1 °F 50.0 °F 35% 29.79 in 10.0 mi West 8.1 mph - N/A   Clear
10:53 AM 82.9 °F 50.0 °F 32% 29.78 in 10.0 mi WNW 8.1 mph 17.3 mph N/A   Clear
11:53 AM 82.9 °F 48.9 °F 31% 29.79 in 10.0 mi WSW 6.9 mph - N/A   Clear
12:53 PM 82.9 °F 51.1 °F 33% 29.78 in 10.0 mi West 11.5 mph 18.4 mph N/A   Mostly Cloudy
1:53 PM 84.0 °F 48.0 °F 28% 29.78 in 10.0 mi SSW 3.5 mph - N/A   Overcast
2:53 PM 84.9 °F 48.0 °F 28% 29.78 in 10.0 mi Calm Calm - N/A   Mostly Cloudy
3:53 PM 86.0 °F 48.0 °F 27% 29.79 in 10.0 mi West 6.9 mph - N/A   Overcast
4:53 PM 87.1 °F 51.1 °F 29% 29.81 in 10.0 mi North 12.7 mph - N/A   Overcast
5:53 PM 82.9 °F 51.1 °F 33% 29.83 in 10.0 mi NNE 5.8 mph - N/A   Mostly Cloudy
6:53 PM 82.0 °F 52.0 °F 35% 29.81 in 10.0 mi North 10.4 mph - N/A   Clear
7:53 PM 75.0 °F 54.0 °F 48% 29.83 in 10.0 mi ENE 4.6 mph - N/A   Clear
8:53 PM 66.9 °F 53.1 °F 61% 29.88 in 10.0 mi WSW 3.5 mph - N/A   Clear
9:53 PM 64.0 °F 52.0 °F 65% 29.89 in 10.0 mi Calm Calm - N/A   Clear
10:53 PM 61.0 °F 52.0 °F 72% 29.89 in 10.0 mi South 3.5 mph - N/A   Clear
11:53 PM 64.0 °F 53.1 °F 67% 29.88 in 10.0 mi Calm Calm - N/A   Clear